Tracking 35237 objects as of 6-Sep-2026
HD Live streaming from Space Station
objects crossing your sky now

COSMOS 977

Track COSMOS 977 now!
10-day predictions
COSMOS 977 is classified as:


NORAD ID: 10584
Int'l Code: 1978-005B
Launch date: January 10, 1978
Source: Commonwealth of Independent States (former USSR) (CIS)
Launch site: PLESETSK MISSILE AND SPACE COMPLEX (PKMTR)
Your satellite tracking list
Your tracking list is empty




NASA's NSSDC Master Catalog

Two Line Element Set (TLE):
1 10584U 78005B   26249.43756832  .00000002  00000-0  10761-3 0  9999
2 10584  74.0282 230.2131 0041304 337.3077 141.5046 12.57991945221678
Source of the keplerian elements: AFSPC